Location: Tamazert
(32.6352°N, 5.2072°W)
Time: 20:37:02
(UTC+00:00)

Vanguard 2 Rocket - Pass Details

Date: 05 October 2022
Orbit: 555 x 3321 km, 32.9° (Epoch: 02 December)

Event Time Altitude Azimuth Distance (km) Brightness Sun altitude
Rises 22:46:45 0° 253° (WSW) 7,112 11.6 -56.3°
Reaches altitude 10° 22:51:55 10° 252° (WSW) 5,859 11.1 -57.0°
Enters shadow 22:58:32 27° 252° (WSW) 4,181 10.1 -57.8°
Maximum altitude 23:08:52 83° 168° (SSE) 2,083 - -59.0°
Drops below altitude 10° 23:18:22 10° 82° (E) 3,499 - -59.9°
Sets 23:20:41 0° 81° (E) 4,200 - -60.2°
